Location: Madrid
(40.4000°N, 3.6830°W)
Time: 08:44:13
(UTC+02:00)

ISS - Pass Details

Date: 23 July 2017
Orbit: 400 x 408 km, 51.6° (Epoch: 21 July)

Event Time Altitude Azimuth Distance (km) Brightness Sun altitude
Rises 23:17:51 0° 235° (SW) 2,299 0.1 -16.2°
Reaches altitude 10° 23:19:55 10° 236° (SW) 1,443 -0.9 -16.4°
Maximum altitude 23:23:09 79° 323° (NW) 411 -3.8 -16.9°
Drops below altitude 10° 23:26:24 10° 51° (NE) 1,451 -1.1 -17.3°
Sets 23:28:29 0° 53° (NE) 2,313 0.0 -17.6°
